Tracking 18980 objects as of 19-Feb-2018
HD Live streaming from Space Station
objects crossing your sky now

DASH/VEP 3

Track DASH/VEP 3 now!
DASH/VEP 3 is classified as:


NORAD ID: 27368
Int'l Code: 2002-003B
Perigee: 443.7 km
Apogee: 34,888.2 km
Inclination: 28.8 °
Period: 618.1 minutes
Semi major axis: 24036 km
RCS: 13.4031 m2 (large)
Launch date: February 4, 2002
Source: Japan (JPN)
Launch site: TANEGASHIMA SPACE CENTER (TNSTA)
aabbcc
Your satellite tracking list
Your tracking list is empty




NASA's NSSDC Master Catalog

Two Line Element Set (TLE):
1 27368U 02003B   18049.51590027 -.00000204  00000-0 -60605-3 0  9990
2 27368  28.8053 279.7812 7164923 314.0807   5.8437  2.32961434134790
Source of the keplerian elements: AFSPC